GLOBALSTAR M001 1 25162U 98008A 26105.49074786 -.00000078 00000+0 14641-3 0 9994 2 25162 52.0020 173.3286 0001817 169.3913 205.0050 12.38230983281165 GLOBALSTAR M004 1 25163U 98008B 26105.58994693 -.00000093 00000+0 61150-4 0 9998 2 25163 52.0000 211.5767 0003032 230.5531 143.2490 12.63418699299914 GLOBALSTAR M002 1 25164U 98008C 26105.57004924 -.00000072 00000+0 90319-4 0 9993 2 25164 52.0005 202.0243 0000774 346.6254 13.4545 11.61515937219208 GLOBALSTAR M003 1 25165U 98008D 26105.63375543 -.00000184 00000+0 -10117-2 0 9990 2 25165 51.9855 50.7903 0007791 176.8967 354.8216 12.12017293269897 GLOBALSTAR M014 1 25306U 98023A 26105.36576455 -.00000055 00000+0 42840-3 0 9994 2 25306 51.9810 119.4035 0001025 197.4842 268.0809 11.65486021226409 GLOBALSTAR M006 1 25307U 98023B 26105.53081236 -.00000103 00000+0 -56321-3 0 9996 2 25307 51.9930 182.7636 0003013 290.0629 83.4145 11.58177851251865 GLOBALSTAR M015 1 25308U 98023C 26105.56498462 -.00000046 00000+0 62769-3 0 9991 2 25308 51.9830 295.0126 0012033 253.0707 158.3796 11.48861435228837 GLOBALSTAR M008 1 25309U 98023D 26105.60544137 -.00000086 00000+0 78861-4 0 9993 2 25309 51.9989 41.2512 0003165 87.3158 85.3246 12.36082862275240 GLOBALSTAR M023 1 25621U 99004A 26105.61262295 -.00000046 00000+0 32049-3 0 9996 2 25621 52.0104 212.5342 0010327 77.2369 296.9413 12.62523399253934 GLOBALSTAR M040 1 25622U 99004B 26105.62552561 -.00000092 00000+0 66720-4 0 9991 2 25622 51.9916 217.0942 0000406 16.5917 356.8381 12.62032395253449 GLOBALSTAR M036 1 25623U 99004C 26105.43683042 .00000065 00000+0 21575-2 0 9996 2 25623 51.9949 163.6361 0010338 270.1008 103.6206 11.86627030214869 GLOBALSTAR M038 1 25624U 99004D 26105.20084123 -.00000082 00000+0 10384-3 0 9994 2 25624 51.9974 281.7938 0001180 350.7339 181.0327 12.32543721239617 GLOBALSTAR M022 1 25649U 99012A 26105.54317473 -.00000058 00000+0 34112-3 0 9992 2 25649 52.0030 188.9499 0002554 57.9888 314.8398 12.02512087212758 GLOBALSTAR M041 1 25650U 99012B 26105.25020334 -.00000080 00000+0 67230-4 0 9992 2 25650 52.0010 80.4037 0001041 198.5485 161.5314 11.96682879214449 GLOBALSTAR M046 1 25651U 99012C 26105.32398840 -.00000149 00000+0 -66246-3 0 9993 2 25651 52.0033 128.6509 0001928 135.4423 237.2444 12.09421437220224 GLOBALSTAR M037 1 25652U 99012D 26105.40143350 -.00000075 00000+0 15823-3 0 9999 2 25652 52.0026 343.6833 0002512 120.5567 50.3211 12.62464711249442 GLOBALSTAR M045 1 25676U 99019A 26105.45915297 -.00000105 00000+0 -10346-3 0 9994 2 25676 51.9957 163.7182 0000304 174.9078 197.8937 12.27072793230509 GLOBALSTAR M019 1 25677U 99019B 26105.32322593 -.00000048 00000+0 43432-3 0 9999 2 25677 51.9898 315.7382 0001286 165.7597 4.9523 12.13883860221834 GLOBALSTAR M044 1 25678U 99019C 26105.27370764 -.00000073 00000+0 14843-3 0 9999 2 25678 51.9979 305.0255 0005398 259.3485 272.7552 11.90264973207293 GLOBALSTAR M042 1 25679U 99019D 26105.21634264 -.00000065 00000+0 25146-3 0 9991 2 25679 52.0011 278.3060 0002836 185.2655 345.8490 12.22096513222186 GLOBALSTAR M025 1 25770U 99031A 26105.51227997 -.00000052 00000+0 47373-3 0 9993 2 25770 51.9799 178.9103 0002066 269.0692 104.2231 11.22560812515664 GLOBALSTAR M049 1 25771U 99031B 26105.61978255 -.00000067 00000+0 -77151-4 0 9990 2 25771 51.9868 228.6199 0003236 162.8367 197.2540 11.12124174151071 GLOBALSTAR M047 1 25772U 99031C 26105.51398637 -.00000069 00000+0 32700-4 0 9992 2 25772 51.9818 196.9459 0016330 64.4038 295.8453 11.31933218505343 GLOBALSTAR M052 1 25773U 99031D 26105.35586088 -.00000068 00000+0 -79130-4 0 9992 2 25773 51.9897 333.6470 0002023 328.0189 203.2175 11.15064437512212 GLOBALSTAR M035 1 25851U 99037A 26105.28472976 -.00000091 00000+0 -10511-2 0 9999 2 25851 51.9923 101.2506 0013480 111.9465 261.6359 11.04541803129641 GLOBALSTAR M032 1 25852U 99037B 26105.60153111 -.00000091 00000+0 -77190-3 0 9990 2 25852 51.9951 264.8839 0012020 317.3232 42.6634 11.19068896168649 GLOBALSTAR M051 1 25853U 99037C 26105.49877372 -.00000073 00000+0 -28258-4 0 9992 2 25853 51.9827 31.5992 0000415 92.6672 267.4186 11.42201794166938 GLOBALSTAR M030 1 25854U 99037D 26105.52168208 -.00000002 00000+0 15444-2 0 9990 2 25854 51.9860 178.4237 0003790 214.8744 145.1825 11.55111082184987 GLOBALSTAR M048 1 25872U 99041A 26105.43314574 -.00000052 00000+0 50191-3 0 9998 2 25872 51.9400 338.4781 0013169 351.8426 179.8738 11.33863226159269 GLOBALSTAR M026 1 25873U 99041B 26105.58507198 -.00000127 00000+0 -23212-2 0 9998 2 25873 52.0003 215.3535 0001582 67.2897 305.6094 11.06842152181979 GLOBALSTAR M043 1 25874U 99041C 26105.25223471 -.00000055 00000+0 40484-3 0 9992 2 25874 51.9377 98.5793 0013411 106.1972 266.8426 11.25699675156891 GLOBALSTAR M028 1 25875U 99041D 26105.42433706 -.00000093 00000+0 47732-4 0 9992 2 25875 51.9651 11.8328 0063763 8.4113 351.7803 12.50598669227998 GLOBALSTAR M024 1 25883U 99043A 26105.57660479 -.00000150 00000+0 -30106-2 0 9998 2 25883 52.0028 58.3176 0001221 237.9660 293.2569 11.10170417148444 GLOBALSTAR M027 1 25884U 99043B 26105.35486995 .00000023 00000+0 32660-2 0 9998 2 25884 52.0175 145.3656 0021502 119.9685 240.3246 11.04373694174627 GLOBALSTAR M054 1 25885U 99043C 26105.56157435 -.00000066 00000+0 13849-3 0 9993 2 25885 52.0134 221.4567 0004242 346.1999 27.9627 11.39226465153512 GLOBALSTAR M053 1 25886U 99043D 26105.50544741 -.00000056 00000+0 36055-3 0 9991 2 25886 51.9968 185.4613 0003708 227.2572 145.7623 11.27671357153559 GLOBALSTAR M058 1 25907U 99049A 26105.46766594 -.00000018 00000+0 89762-3 0 9999 2 25907 51.9970 21.9945 0002396 124.0237 236.0825 11.93211695577626 GLOBALSTAR M050 1 25908U 99049B 26105.47126759 -.00000012 00000+0 86304-3 0 9997 2 25908 52.0023 7.0775 0008443 276.1392 254.6854 12.07466202184707 GLOBALSTAR M033 1 25909U 99049C 26105.59470040 .00000018 00000+0 10579-2 0 9991 2 25909 51.9903 217.6850 0014909 164.7402 195.3898 12.20307836572661 GLOBALSTAR M055 1 25910U 99049D 26105.61143758 -.00000096 00000+0 -11770-4 0 9993 2 25910 52.0015 213.6567 0006916 45.6408 314.5009 12.29443039205489 GLOBALSTAR M057 1 25943U 99058A 26105.54541388 -.00000071 00000+0 19659-3 0 9997 2 25943 51.9982 210.1011 0001970 269.2060 90.8564 12.24838411203985 GLOBALSTAR M059 1 25944U 99058B 26105.27914442 -.00000063 00000+0 29234-3 0 9994 2 25944 51.9996 109.9009 0000376 218.0621 155.4731 11.99997117610310 GLOBALSTAR M056 1 25945U 99058C 26105.23724646 -.00000085 00000+0 33373-4 0 9990 2 25945 51.9943 104.2341 0001228 58.2530 315.0806 12.04789174199037 GLOBALSTAR M031 1 25946U 99058D 26105.42349027 -.00000113 00000+0 -22535-3 0 9998 2 25946 51.9991 337.9500 0002129 78.2090 91.9622 12.16051063201310 GLOBALSTAR M039 1 25961U 99062A 26105.23521285 -.00000120 00000+0 -92127-4 0 9990 2 25961 51.9847 68.7159 0002514 305.8115 54.2517 12.62344645218361 GLOBALSTAR M034 1 25962U 99062B 26105.26910124 -.00000058 00000+0 35946-3 0 9992 2 25962 51.9884 306.1425 0013382 250.6248 281.2896 11.79456836174037 GLOBALSTAR M029 1 25963U 99062C 26105.42894212 -.00000073 00000+0 16266-3 0 9991 2 25963 51.9837 357.2760 0002644 5.1108 165.7269 11.99909742205409 GLOBALSTAR M061 1 25964U 99062D 26105.32837395 -.00000084 00000+0 -55060-4 0 9999 2 25964 51.9772 134.0340 0006121 174.0573 198.8017 11.76777159156750 GLOBALSTAR M063 1 26081U 00008A 26105.53269793 -.00000065 00000+0 26355-3 0 9998 2 26081 51.9992 35.2891 0004425 166.7447 3.7671 11.86183818193453 GLOBALSTAR M062 1 26082U 00008B 26105.22040328 -.00000034 00000+0 46135-3 0 9990 2 26082 51.9852 287.5788 0007806 43.7027 128.7501 12.43485181534192 GLOBALSTAR M060 1 26083U 00008C 26105.24707844 -.00000047 00000+0 43552-3 0 9990 2 26083 52.0018 290.2453 0003429 34.3869 136.9009 12.17680748189160 GLOBALSTAR M064 1 26084U 00008D 26105.31198321 -.00000053 00000+0 43093-3 0 9990 2 26084 52.0002 131.1405 0001511 272.5701 87.4958 11.88543705203028 GLOBALSTAR M065 1 31571U 07020A 26105.55575367 -.00000057 00000+0 26004-3 0 9990 2 31571 51.9919 25.9357 0009218 258.7147 272.9477 12.62025827871580 GLOBALSTAR M069 1 31573U 07020C 26105.63648486 -.00000114 00000+0 -20007-3 0 9996 2 31573 52.0032 69.1653 0002087 22.7661 148.5379 12.23469949871141 GLOBALSTAR M072 1 31574U 07020D 26105.16786432 -.00000082 00000+0 24663-4 0 9995 2 31574 51.9930 268.0217 0001582 159.6645 12.1317 11.91657156867465 GLOBALSTAR M071 1 31576U 07020F 26105.31411932 -.00000003 00000+0 86991-3 0 9998 2 31576 52.0041 104.2132 0000906 0.1160 103.2529 12.18268143531762 GLOBALSTAR M067 1 32263U 07048A 26105.59306168 -.00000083 00000+0 10542-3 0 9993 2 32263 51.9725 231.0526 0000745 229.2946 144.2630 12.40687364847028 GLOBALSTAR M070 1 32264U 07048B 26105.23199161 -.00000086 00000+0 96949-4 0 9997 2 32264 51.9752 288.3396 0001039 102.7680 68.2280 12.62333249851818 GLOBALSTAR M066 1 32265U 07048C 26105.52762277 -.00000113 00000+0 -15706-3 0 9997 2 32265 51.9587 237.7906 0004103 265.8617 172.8870 12.30388247852514 GLOBALSTAR M068 1 32266U 07048D 26105.25019381 -.00000067 00000+0 20484-3 0 9995 2 32266 51.9870 101.4476 0001182 78.5690 295.2802 12.62844698855726 GLOBALSTAR M079 1 37188U 10054A 26105.28821817 -.00000093 00000+0 60161-4 0 9998 2 37188 52.0046 300.1453 0000686 117.2845 53.7838 12.62264957714606 GLOBALSTAR M074 1 37189U 10054B 26105.31479065 -.00000089 00000+0 82833-4 0 9992 2 37189 52.0025 299.3399 0000699 89.8845 81.6435 12.62267455715217 GLOBALSTAR M076 1 37190U 10054C 26105.26168118 -.00000075 00000+0 16277-3 0 9995 2 37190 52.0036 299.6984 0000484 94.0225 76.7130 12.62271830714922 GLOBALSTAR M077 1 37191U 10054D 26105.39484262 -.00000054 00000+0 44252-3 0 9992 2 37191 51.9986 338.6736 0003265 64.1732 106.5788 11.67547362713802 GLOBALSTAR M075 1 37192U 10054E 26105.43365225 -.00000088 00000+0 87882-4 0 9999 2 37192 51.9968 341.2645 0000785 87.5379 84.5705 12.62265812714013 GLOBALSTAR M073 1 37193U 10054F 26105.57157441 -.00000117 00000+0 -73894-4 0 9996 2 37193 52.0057 254.8951 0000577 130.1188 308.0411 12.62266360716026 GLOBALSTAR M083 1 37739U 11033A 26105.57002435 -.00000098 00000+0 30304-4 0 9998 2 37739 51.9853 203.2137 0000495 152.5528 220.2878 12.62262494685046 GLOBALSTAR M088 1 37740U 11033B 26105.30669801 -.00000083 00000+0 11628-3 0 9998 2 37740 52.0195 110.2907 0000248 72.4033 301.2756 12.62263083680559 GLOBALSTAR M091 1 37741U 11033C 26105.26776965 -.00000140 00000+0 -20005-3 0 9998 2 37741 51.9990 73.4645 0000396 88.6706 49.4348 12.62262612681332 GLOBALSTAR M085 1 37742U 11033D 26105.49955157 -.00000101 00000+0 17099-4 0 9992 2 37742 52.0150 23.9974 0000640 93.3953 78.6941 12.62270166681872 GLOBALSTAR M081 1 37743U 11033E 26105.52583226 -.00000114 00000+0 -55817-4 0 9996 2 37743 51.9983 26.4254 0000480 73.2825 97.5035 12.62263356682026 GLOBALSTAR M089 1 37744U 11033F 26105.40717375 -.00000088 00000+0 85494-4 0 9991 2 37744 51.9954 340.9610 0000725 62.0126 109.6343 12.62265656682850 GLOBALSTAR M084 1 38040U 11080A 26105.54408958 -.00000105 00000+0 -93749-5 0 9996 2 38040 52.0003 207.9904 0000307 101.4901 272.5286 12.62266306660855 GLOBALSTAR M080 1 38041U 11080B 26105.59456036 -.00000105 00000+0 -64852-5 0 9995 2 38041 52.0054 209.5337 0001001 124.4932 248.6742 12.62268242660987 GLOBALSTAR M082 1 38042U 11080C 26105.38739226 -.00000075 00000+0 16065-3 0 9994 2 38042 52.0065 165.6591 0000653 136.1183 305.2379 12.62269074661660 GLOBALSTAR M092 1 38043U 11080D 26105.66290808 -.00000096 00000+0 42410-4 0 9991 2 38043 52.0081 255.2131 0000696 107.6741 265.7758 12.62266421660152 GLOBALSTAR M090 1 38044U 11080E 26105.08300514 -.00000069 00000+0 19208-3 0 9992 2 38044 52.0107 160.5207 0000347 144.1392 232.5391 12.62267994661742 GLOBALSTAR M086 1 38045U 11080F 26105.42162975 -.00000080 00000+0 13452-3 0 9996 2 38045 51.9880 159.5227 0000757 259.4124 113.5219 12.62285203661736 GLOBALSTAR M097 1 39072U 13005A 26105.60679542 -.00000117 00000+0 -73688-4 0 9999 2 39072 52.0046 73.8299 0000268 92.4639 267.6259 12.62260090609007 GLOBALSTAR M093 1 39073U 13005B 26105.58057913 -.00000111 00000+0 -41456-4 0 9991 2 39073 52.0105 67.2346 0000230 118.4186 241.6704 12.62264477608952 GLOBALSTAR M094 1 39074U 13005C 26105.34312156 -.00000083 00000+0 11654-3 0 9992 2 39074 51.9981 342.1423 0000657 102.8786 257.2154 12.62267441610533 GLOBALSTAR M096 1 39075U 13005D 26105.51476624 -.00000106 00000+0 -13561-4 0 9990 2 39075 52.0095 30.3679 0000531 90.1892 269.9036 12.62264017609475 GLOBALSTAR M078 1 39076U 13005E 26105.32935481 -.00000088 00000+0 89106-4 0 9997 2 39076 51.9851 115.0269 0001116 119.8303 240.2675 12.62276847608076 GLOBALSTAR M095 1 39077U 13005F 26105.27697280 -.00000088 00000+0 89623-4 0 9998 2 39077 52.0061 112.7028 0000545 138.8674 221.2234 12.62267376607926 GLOBALSTAR M087 1 52888U 22064A 26105.36962205 -.00000110 00000+0 -33296-4 0 9992 2 52888 51.9996 253.6987 0000811 130.2008 229.8930 12.62268131183205